[Iaude] MPEC J172: 2000 CS105 = 2017 BM232 [a=38.95, e=0.01, i=5.3, H=7.72]
    mpec at cfa.harvard.edu 
    mpec at cfa.harvard.edu
       
    Wed May  8 12:47:32 EDT 2024
    
    
  
M.P.E.C. 2024-J172                                  Issued 2024 May 8, 16:44 UT
     The Minor Planet Electronic Circulars contain information on unusual
         minor planets, routine data on comets and natural satellites,
         and occasional editorial announcements.  They are published
    on behalf of Division F of the International Astronomical Union by the
          Minor Planet Center, Smithsonian Astrophysical Observatory,
                          Cambridge, MA 02138, U.S.A.
			  
             Prepared using the Tamkin Foundation Computer Network
                              MPC at CFA.HARVARD.EDU
            URL https://www.minorplanetcenter.net/    ISSN 1523-6714
                            2000 CS105 = 2017 BM232                             
Additional Observations:
     K00CA5S 5C2003 12 27.49505811 18 39.53 +07 24 23.0                WEJ172T14
     K00CA5S 5C2003 12 27.53564111 18 39.50 +07 24 23.4                WEJ172T14
     K00CA5S 5C2003 12 27.57604411 18 39.46 +07 24 23.8                WEJ172T14
     K00CA5S 1C2016 04 02.37970312 17 53.01 -00 41 03.7                WEJ172T09
     K00CA5S 1C2016 04 02.51250812 17 52.36 -00 40 59.8                WEJ172T09
     K00CA5S 1C2016 06 04.25194712 14 21.85 -00 21 02.6                WEJ172T09
     K00CA5S 1C2016 06 04.33516412 14 21.76 -00 21 02.2                WEJ172T09
     K00CA5S 1C2017 01 26.65033412 27 41.23 -01 52 49.6                WEJ172T09
     K00CA5S 1C2017 02 23.52165912 26 17.14 -01 43 52.6                WEJ172T09
     K00CA5S 1C2017 02 23.59537412 26 16.83 -01 43 50.8                WEJ172T09
Observer details:
T09 Subaru Telescope, Maunakea.  Observer .  Measurer S. Deen.  8.3-m Subaru
    Telescope + CCD.
T14 Canada-France-Hawaii Telescope, Maunakea.  Observer B. Gladman.  Measurer
    S. Deen.  3.58-m Canada-France-Hawaii Telescope + CCD.
Orbital elements:
2000 CS105 = 2017 BM232
Epoch 2024 Mar. 31.0 TT = JDT 2460400.5                 Veres                   
M 321.66796              (2000.0)            P               Q                  
n   0.00405478     Peri.  219.21950     -0.56085122     +0.82748636             
a  38.9485235      Node    16.72008     -0.73435875     -0.48232891             
e   0.0135303      Incl.    5.32264     -0.38231287     -0.28744591             
P 243              H    7.72          G   0.15           U   4                  
Residuals in seconds of arc
000206 695  0.3+  0.3-    160402 T09  0.1+  0.0     170126 T09  0.1+  0.0
000206 695  0.1+  0.2-    160402 T09  0.1+  0.0     170128 T09  0.1+  0.1+
000301 695  0.2-  0.3+    160604 T09  0.0   0.1-    170128 T09  0.1-  0.1+
000301 695  0.1-  0.3+    160604 T09  0.1+  0.0     170223 T09  0.1+  0.1-
031227 T14  0.1-  0.1-    170123 T09  0.1-  0.1+    170223 T09  0.1-  0.2-
031227 T14  0.1-  0.1-    170123 T09  0.0   0.1+
031227 T14  0.1-  0.0     170123 T09  0.2-  0.1+
Ephemeris:
2000 CS105               a,e,i = 38.95, 0.01, 5                  q = 38.4215
Date    TT    R. A. (2000) Decl.     Delta      r    Elong.  Phase     V
2024 04 08    13 01 16.6 -06 31 43  37.5369 38.5377   178.3     0.0    23.5
...
2024 04 23    13 00 03.8 -06 24 35  37.5733 38.5374   163.3     0.4    23.6
...
2024 05 01    12 59 27.4 -06 21 02  37.6191 38.5372   155.4     0.6    23.6
...
2024 05 07    12 59 01.8 -06 18 32  37.6649 38.5371   149.4     0.8    23.7
2024 05 08    12 58 57.7 -06 18 08  37.6734 38.5370   148.4     0.8    23.7
2024 05 09    12 58 53.7 -06 17 45  37.6822 38.5370   147.5     0.8    23.7
...
2024 05 15    12 58 30.7 -06 15 31  37.7400 38.5369   141.6     0.9    23.7
...
2024 05 23    12 58 03.6 -06 12 55  37.8298 38.5367   133.7     1.1    23.7
...
2024 06 07    12 57 25.7 -06 09 21  38.0313 38.5364   119.2     1.3    23.7
M. P. C. Staff               (C) Copyright 2024 MPC           M.P.E.C. 2024-J172
    
    
More information about the Iaude
mailing list